User: anonymous   Login
Location: Gauravaram
(16.6995°N, 80.5417°E)
Time: 19:45:34
(UTC+00:00)
Language:

Cosmos 2369 Rocket - Orbit

View from above orbital plane
View from above orbital plane
View from above satellite
View from above satellite

Ground track
Ground track

The orbit data is extracted from the following two-line orbital elements,

1 26070U 00006B   24284.59151220  .00000416  00000-0  23633-3 0  9997
2 26070  71.0006 100.8175 0018640 248.7775 111.1357 14.15691037275653
Epoch (UTC): 10 October 2024 14:11:46
Eccentricity: 0.0018640
inclination: 71.0006°
perigee height: 826 km
apogee height: 853 km
right ascension of ascending node: 100.8175°
argument of perigee: 248.7775°
revolutions per day: 14.15691037
mean anomaly at epoch: 111.1357°
orbit number at epoch: 27565

The dashed part of the orbit path shows where the satellite is in the earth's shadow,  

DLR